Meteo pe oră la Abeshe

Astăzi, 24 Iulie, Sâmbătă

Timp Temperatura Precipitaţii Vânt Presiune Umiditate
00:00 +30°C° 0.1 mm 3 m/s 713 mmHg 58%
01:00 +29°C° 0.1 mm 2 m/s 713 mmHg 59%
02:00 +29°C° 0 mm 2 m/s 713 mmHg 62%
03:00 +29°C° 0 mm 2 m/s 713 mmHg 64%
04:00 +28°C° 0 mm 2 m/s 712 mmHg 66%
05:00 +29°C° 0.1 mm 2 m/s 713 mmHg 65%
06:00 +29°C° 0.1 mm 1 m/s 713 mmHg 64%
07:00 +29°C° 0.1 mm 1 m/s 713 mmHg 63%
08:00 +30°C° 0 mm 2 m/s 713 mmHg 58%
09:00 +31°C° 0 mm 2 m/s 713 mmHg 54%
10:00 +33°C° 0 mm 3 m/s 713 mmHg 50%
11:00 +34°C° 0 mm 3 m/s 713 mmHg 47%
12:00 +35°C° 0 mm 3 m/s 712 mmHg 44%
13:00 +36°C° 0 mm 4 m/s 712 mmHg 41%
14:00 +36°C° 0.1 mm 3 m/s 712 mmHg 41%
15:00 +36°C° 0.1 mm 3 m/s 711 mmHg 40%
16:00 +36°C° 0.1 mm 3 m/s 711 mmHg 40%
17:00 +35°C° 0 mm 3 m/s 711 mmHg 41%
18:00 +35°C° 0 mm 2 m/s 711 mmHg 43%
19:00 +35°C° 0 mm 2 m/s 711 mmHg 44%
20:00 +34°C° 0 mm 2 m/s 712 mmHg 46%
21:00 +34°C° 0 mm 2 m/s 712 mmHg 47%
22:00 +34°C° 0 mm 2 m/s 712 mmHg 49%
23:00 +32°C° 0 mm 2 m/s 712 mmHg 50%

Mâine, 25 Iulie, Duminică

Timp Temperatura Precipitaţii Vânt Presiune Umiditate
00:00 +33°C° 0 mm 3 m/s 712 mmHg 52%
01:00 +31°C° 0 mm 3 m/s 711 mmHg 54%
02:00 +30°C° 0.3 mm 3 m/s 711 mmHg 58%
03:00 +29°C° 0.3 mm 4 m/s 711 mmHg 62%
04:00 +28°C° 0.3 mm 4 m/s 712 mmHg 67%
05:00 +28°C° 0.2 mm 3 m/s 712 mmHg 67%
06:00 +29°C° 0.2 mm 3 m/s 712 mmHg 67%
07:00 +29°C° 0.2 mm 2 m/s 713 mmHg 67%
08:00 +28°C° 0.7 mm 2 m/s 713 mmHg 70%
09:00 +28°C° 0.7 mm 3 m/s 713 mmHg 73%
10:00 +27°C° 0.7 mm 3 m/s 713 mmHg 76%
11:00 +28°C° 0.1 mm 4 m/s 713 mmHg 71%
12:00 +29°C° 0.1 mm 4 m/s 713 mmHg 66%
13:00 +30°C° 0.1 mm 4 m/s 712 mmHg 61%
14:00 +30°C° 0.2 mm 4 m/s 712 mmHg 60%
15:00 +30°C° 0.2 mm 4 m/s 711 mmHg 59%
16:00 +30°C° 0.2 mm 4 m/s 710 mmHg 58%
17:00 +29°C° 0.1 mm 4 m/s 711 mmHg 63%
18:00 +28°C° 0.1 mm 4 m/s 711 mmHg 68%
19:00 +26°C° 0.1 mm 4 m/s 712 mmHg 73%
20:00 +26°C° 0.4 mm 3 m/s 712 mmHg 73%
21:00 +26°C° 0.4 mm 2 m/s 712 mmHg 73%
22:00 +26°C° 0.4 mm 2 m/s 713 mmHg 72%
23:00 +26°C° 0.1 mm 2 m/s 712 mmHg 73%

Poimâine, 26 Iulie, Luni

Timp Temperatura Precipitaţii Vânt Presiune Umiditate
00:00 +26°C° 0.1 mm 2 m/s 712 mmHg 74%
01:00 +26°C° 0.1 mm 2 m/s 711 mmHg 75%
02:00 +26°C° 0.1 mm 2 m/s 711 mmHg 76%
03:00 +26°C° 0.1 mm 2 m/s 711 mmHg 76%
04:00 +26°C° 0.1 mm 2 m/s 712 mmHg 76%
05:00 +26°C° 0.1 mm 2 m/s 712 mmHg 76%
06:00 +26°C° 0.1 mm 3 m/s 713 mmHg 75%
07:00 +26°C° 0.1 mm 3 m/s 713 mmHg 74%
08:00 +27°C° 0 mm 4 m/s 714 mmHg 72%
09:00 +28°C° 0 mm 4 m/s 714 mmHg 69%
10:00 +28°C° 0 mm 5 m/s 714 mmHg 66%
11:00 +29°C° 0 mm 5 m/s 714 mmHg 64%
12:00 +29°C° 0 mm 5 m/s 714 mmHg 62%
13:00 +30°C° 0 mm 5 m/s 713 mmHg 60%
14:00 +30°C° 0 mm 4 m/s 713 mmHg 59%
15:00 +30°C° 0 mm 4 m/s 713 mmHg 58%
16:00 +30°C° 0 mm 4 m/s 712 mmHg 57%
17:00 +29°C° 0 mm 4 m/s 712 mmHg 62%
18:00 +29°C° 0 mm 4 m/s 713 mmHg 66%
19:00 +28°C° 0 mm 4 m/s 713 mmHg 70%
20:00 +28°C° 0.1 mm 4 m/s 713 mmHg 73%
21:00 +27°C° 0.1 mm 4 m/s 713 mmHg 75%
22:00 +27°C° 0.1 mm 4 m/s 713 mmHg 77%
23:00 +26°C° 0.3 mm 3 m/s 713 mmHg 79%

27 Iulie, Marţi

Timp Temperatura Precipitaţii Vânt Presiune Umiditate
00:00 +26°C° 0.3 mm 3 m/s 713 mmHg 80%
01:00 +25°C° 0.3 mm 3 m/s 713 mmHg 82%
02:00 +25°C° 0.4 mm 3 m/s 713 mmHg 82%
03:00 +25°C° 0.4 mm 2 m/s 713 mmHg 82%
04:00 +25°C° 0.4 mm 2 m/s 713 mmHg 82%
05:00 +25°C° 0.1 mm 2 m/s 713 mmHg 80%
06:00 +26°C° 0.1 mm 2 m/s 713 mmHg 78%
07:00 +26°C° 0.1 mm 1 m/s 713 mmHg 77%
08:00 +26°C° 0 mm 2 m/s 713 mmHg 74%
09:00 +27°C° 0 mm 2 m/s 713 mmHg 72%
10:00 +27°C° 0 mm 2 m/s 714 mmHg 69%
11:00 +28°C° 0 mm 2 m/s 714 mmHg 68%
12:00 +28°C° 0 mm 2 m/s 713 mmHg 67%
13:00 +28°C° 0 mm 2 m/s 713 mmHg 65%
14:00 +28°C° 0.8 mm 3 m/s 713 mmHg 69%
15:00 +27°C° 0.8 mm 4 m/s 713 mmHg 73%
16:00 +26°C° 0.8 mm 5 m/s 713 mmHg 77%
17:00 +26°C° 0.2 mm 5 m/s 712 mmHg 74%
18:00 +26°C° 0.2 mm 4 m/s 712 mmHg 72%
19:00 +26°C° 0.2 mm 4 m/s 711 mmHg 69%
20:00 +26°C° 0 mm 3 m/s 712 mmHg 69%
21:00 +27°C° 0 mm 2 m/s 712 mmHg 70%
22:00 +27°C° 0 mm 1 m/s 713 mmHg 70%
23:00 +26°C° 0.2 mm 1 m/s 713 mmHg 71%

28 Iulie, Miercuri

Timp Temperatura Precipitaţii Vânt Presiune Umiditate
00:00 +26°C° 0.2 mm 1 m/s 712 mmHg 72%
01:00 +26°C° 0.2 mm 1 m/s 712 mmHg 73%
02:00 +26°C° 1 mm 1 m/s 712 mmHg 75%
03:00 +25°C° 1 mm 1 m/s 712 mmHg 77%
04:00 +25°C° 1 mm 2 m/s 712 mmHg 79%
05:00 +25°C° 0.5 mm 2 m/s 712 mmHg 79%
06:00 +25°C° 0.5 mm 2 m/s 712 mmHg 79%
07:00 +25°C° 0.5 mm 2 m/s 713 mmHg 79%
08:00 +26°C° 0.4 mm 1 m/s 713 mmHg 76%
09:00 +26°C° 0.4 mm 1 m/s 713 mmHg 72%
10:00 +27°C° 0.4 mm 1 m/s 714 mmHg 69%
11:00 +28°C° 0.1 mm 1 m/s 713 mmHg 63%
12:00 +30°C° 0.1 mm 2 m/s 713 mmHg 58%
13:00 +31°C° 0.1 mm 2 m/s 713 mmHg 52%
14:00 +31°C° 0 mm 3 m/s 712 mmHg 52%
15:00 +33°C° 0 mm 3 m/s 712 mmHg 52%
16:00 +33°C° 0 mm 3 m/s 712 mmHg 51%
17:00 +31°C° 0.4 mm 3 m/s 712 mmHg 57%
18:00 +30°C° 0.4 mm 3 m/s 712 mmHg 62%
19:00 +29°C° 0.4 mm 3 m/s 712 mmHg 68%
20:00 +28°C° 2.5 mm 3 m/s 712 mmHg 72%
21:00 +27°C° 2.5 mm 3 m/s 713 mmHg 77%
22:00 +27°C° 2.5 mm 2 m/s 713 mmHg 82%
23:00 +26°C° 1 mm 3 m/s 713 mmHg 81%

29 Iulie, Joi

Timp Temperatura Precipitaţii Vânt Presiune Umiditate
00:00 +26°C° 1 mm 4 m/s 712 mmHg 79%
01:00 +26°C° 1 mm 5 m/s 712 mmHg 78%
02:00 +26°C° 3 mm 4 m/s 712 mmHg 77%
03:00 +26°C° 3 mm 3 m/s 712 mmHg 76%
04:00 +26°C° 3 mm 3 m/s 711 mmHg 75%
05:00 +26°C° 0 mm 2 m/s 712 mmHg 74%
06:00 +27°C° 0 mm 2 m/s 712 mmHg 74%
07:00 +27°C° 0 mm 1 m/s 712 mmHg 73%
08:00 +28°C° 0 mm 2 m/s 713 mmHg 67%
09:00 +29°C° 0 mm 2 m/s 713 mmHg 61%
10:00 +30°C° 0 mm 2 m/s 713 mmHg 56%
11:00 +32°C° 0 mm 2 m/s 713 mmHg 50%
12:00 +33°C° 0 mm 1 m/s 712 mmHg 45%
13:00 +34°C° 0 mm 1 m/s 712 mmHg 40%
14:00 +35°C° 0 mm 1 m/s 712 mmHg 40%
15:00 +36°C° 0 mm 2 m/s 711 mmHg 39%
16:00 +36°C° 0 mm 3 m/s 711 mmHg 39%
17:00 +35°C° 0.1 mm 3 m/s 711 mmHg 46%
18:00 +33°C° 0.1 mm 3 m/s 711 mmHg 53%
19:00 +32°C° 0.1 mm 4 m/s 711 mmHg 60%
20:00 +29°C° 6.1 mm 4 m/s 712 mmHg 69%
21:00 +27°C° 6.1 mm 4 m/s 712 mmHg 79%
22:00 +25°C° 6.1 mm 4 m/s 713 mmHg 89%
23:00 +25°C° 3.9 mm 3 m/s 712 mmHg 86%
Arată mai mult

Formular de consimțământ

Meteoprog și furnizorii noștri de servicii pot stoca și accesa date personale, precum cookies, identificatori de dispozitiv sau alte tehnologii similare pe dispozitivul dumneavoastră și procesa astfel de date pentru a personaliza conținutul și reclamele, dar și pentru a oferi caracteristici de social media și pentru a analiza traficul.

  • Stocarea și/sau accesarea informațiilor pe dispozitivul dumneavoastră

    Cookies, identificatori de dispozitiv sau alte informații pot fi stocate sau accesate pe dispozitiv în scopurile indicate mai sus.

  • Reclame și conținut personalizat, evaluarea reclamelor și a conținutului, informații despre audiențe și dezvoltarea produselor

    Reclamele și conținutul pot fi personalizate pe baza unui profil. Pot fi adăugate date suplimentare pentru a personaliza mai bine reclamele și conținutul. Performanța reclamelor și conținutului poate fi măsurată. Pot fi obținute informații despre utilizatorii care au văzut reclamele și conținutul. Aceste date pot fi utilizate pentru a dezvolta sau îmbunătăți experiența utilizatorilor, sistemele și software-ul.

Dând clic pe ‘Sunt de acord’, permiteți utilizarea cookie-urilor menționate, a identificatorilor de dispozitiv, balizelor web sau altor tehnologii similare. Setările pot fi modificate din browser-ul dispozitivului dumneavoastră.

În anumite scopuri, interesele legitime pot prima asupra consimțământului. Puteți citi mai multe informații în acest sens în Politica privind Confidențialitatea Datelor și Cookie.